Back to catalog

STARLINK-6265

AliveCommunicationsVLEO
NORAD 56557·PAYLOAD·🇺🇸 United States

Launched May 14, 2023 from Cape Canaveral Space Force Station

Loading…

Next Passes (next 24 hours)

TLE

FreshSource: CelesTrak SupGP

Epoch: Sep 14, 2026, 22:01 UTC

1 56557C 23065BG  26257.91784722  .00029505  00000+0  10689-2 0  2579
2 56557  43.0028 234.9458 0001617 276.3458  20.3411 15.27558074    18

Track STARLINK-6265 in real time with AllMySat

Download on the App Store